Miscellaneous Local Product
Issued by NWS North Platte, NE

Home | Current Version | Previous Version | Graphics & Text | Print | Product List | Glossary On
Versions: 1 2 3 4 5 6 7 8 9 10 11 12 13 14 15 16 17 18 19 20 21 22 23 24 25 26 27 28 29 30 31 32 33 34 35 36 37 38 39 40 41 42 43 44 45 46 47 48 49 50
000
AXUS43 KLBF 310310
MISLBF


WESTERN AND NORTH CENTRAL NEBRASKA HOURLY WEATHER ROUNDUP
NATIONAL WEATHER SERVICE NORTH PLATTE NE
1000 PM CDT SUN AUG 30 2015

NOTE: "FAIR" INDICATES FEW OR NO CLOUDS BELOW 12,000 FEET WITH NO
SIGNIFICANT WEATHER AND/OR OBSTRUCTIONS TO VISIBILITY.

NOTE: STATIONS NOT REPORTING VARIABLES SUCH AS SKY/WEATHER OR
PRESSURE ARE PROVIDED BY THE NEBRASKA DEPARTMENT OF
ROADS...RAWS...AND APRS NETWORKS...AND ARE NOT UNDER
NATIONAL WEATHER SERVICE QUALITY CONTROL.

...OBSERVATIONS IN AND NEAR THE EASTERN PANHANDLE OF NEBRASKA...

CITY           SKY/WX    TMP DP  RH WIND       PRES   REMARKS
PINE RIDGE     PTCLDY    82  46  28 SW6       29.84R
CHADRON        MOCLDY    80  46  30 CALM      29.80R
ALLIANCE       PTCLDY    78  47  33 S17       29.86R
SIDNEY         CLEAR     79  49  34 S16       29.92R
CRESCENT LAKE    N/A     78  45  30 S10         N/A
BIG SPRINGS      N/A     77  46  32 SE12        N/A
$$

...OBSERVATIONS IN NORTH CENTRAL NEBRASKA...

CITY           SKY/WX    TMP DP  RH WIND       PRES   REMARKS
VALENTINE      CLEAR     79  56  45 S21G28    29.81R
THEDFORD       CLEAR     76  61  59 S18G28    29.89S
AINSWORTH      CLEAR     76  61  60 S17G24    29.86R
O`NEILL        CLEAR     70  64  83 S16       29.89S
ORD            CLEAR     69  63  81 S10       29.91S
BROKEN BOW     CLEAR     72  62  71 S14       29.93R
SPRINGVIEW       N/A     77  63  61 SE7         N/A
SARGENT          N/A     68  63  83 CALM        N/A
CHAMBERS         N/A     67  64  89 S7          N/A
EWING            N/A     68  63  83 S6          N/A
$$

...OBSERVATIONS IN SOUTHWEST NEBRASKA AND FAR NORTHEAST COLORADO...

CITY           SKY/WX    TMP DP  RH WIND       PRES   REMARKS
WRAY           CLOUDY    80  41  24 SE18      29.94R
HOLYOKE        FAIR      79  45  29 S13       29.92R
IMPERIAL       CLEAR     78  35  21 S15       29.92R
OGALLALA       CLEAR     78  40  25 S15       29.89R
NORTH PLATTE   CLEAR     73  57  57 SE9       29.91R
MCCOOK         CLEAR     72  45  37 SE10      29.93R
LEXINGTON      CLEAR     70  62  77 SE14      29.94R
PAXTON           N/A     74  44  34 S13         N/A
BRADY            N/A     70  60  70 N3          N/A
CALLAWAY         N/A     67  63  86 S13         N/A
$$

...OBSERVATIONS IN CENTRAL LINCOLN COUNTY AREA...

CITY           SKY/WX    TMP DP  RH WIND       PRES   REMARKS
N.P. AIRPORT   CLEAR     73  57  57 SE9       29.91R
N.P. DOWNTOWN    N/A     75  59  57 SE3         N/A
N.P. HILLCREST   N/A     72  58  61 SE10        N/A
$$

...SOME OBSERVATIONS FROM AROUND THE REGION...

CITY           SKY/WX    TMP DP  RH WIND       PRES   REMARKS
DENVER         PTCLDY    74  40  29 S12       29.99R
LARAMIE        CLOUDY    69  41  36 W31G40    30.19R
CHEYENNE       MOCLDY    72  44  36 W5        30.06R
SCOTTSBLUFF    MOCLDY    80  49  33 NW13      29.86R
RAPID CITY     CLOUDY    75  57  53 N8        29.77F
PIERRE         CLEAR     80  53  39 E16       29.70R
WINNER         FAIR      82  56  40 S25G33    29.76R
SIOUX FALLS    MOCLDY    67  64  90 S10       29.91R
OMAHA          PTCLDY    68  66  93 SE5       29.97R
GRAND ISLAND   CLEAR     69  65  86 S14       29.96R
KANSAS CITY    CLEAR     74  69  85 SE6       29.98R
WICHITA        CLEAR     75  67  76 SE10      29.96R
HAYS           CLEAR     70  54  56 SE9       29.97R
LIBERAL        CLEAR     73  48  40 E13       29.98S
GOODLAND       CLEAR     71  39  31 S12       29.98R
$$



USA.gov is the U.S. government's official web portal to all federal, state and local government web resources and services.